Location: ????????
(60.4333°N, 46.4710°E)
Time: 04:35:50
(UTC+00:00)

Nadezhda 1 Rocket - Pass Details

Date: 25 November 2020
Orbit: 940 x 1006 km, 83.0° (Epoch: 19 January)

Event Time Altitude Azimuth Distance (km) Brightness Sun altitude
Rises 14:02:17 0° 179° (S) 3,702 7.3 -13.4°
Reaches altitude 10° 14:04:48 10° 177° (S) 2,764 6.6 -13.7°
Maximum altitude 14:11:06 67° 96° (E) 1,089 4.0 -14.5°
Drops below altitude 10° 14:17:29 10° 16° (NNE) 2,798 6.1 -15.2°
Sets 14:20:02 0° 14° (NNE) 3,751 6.8 -15.5°
